KA1GJU-3 Weather Reports


Display with metric or nautical units.
time (UTC)temp
F
wind
direction
speed
MPH
gust
MPH
rain 1hr
in
rain 24hr
in
rain mn
in
humidity
%
barometer
mb
20260508005411 50 274 0.0 1.0 0.00 0.00 0.00 100
20260508004412 50 292 0.0 0.0 0.00 0.00 0.00 100
20260508003411 51 303 0.0 2.0 0.00 0.00 0.00 100
20260508002412 51 262 0.0 4.0 0.00 0.00 0.00 100
20260508001411 52 299 2.0 2.0 0.00 0.00 0.00 100
20260508000413 53 282 0.0 5.0 0.00 0.00 0.00 100
20260507235411 53 248 0.0 4.0 0.00 0.00 0.00 100
20260507234412 53 306 1.0 3.0 0.00 0.00 0.00 100
20260507233411 55 295 4.0 8.0 0.00 0.00 0.00 100
20260507232412 56 309 6.0 7.0 0.00 0.00 0.00 100
20260507231411 57 288 3.0 9.0 0.00 0.00 0.00 100
20260507230412 58 255 2.0 5.0 0.00 0.00 0.00 100
20260507225411 59 271 5.0 10.0 0.00 0.00 0.00 100
20260507224413 59 288 5.0 10.0 0.00 0.00 0.00 100
20260507223411 59 268 1.0 5.0 0.00 0.00 0.00 100
20260507222413 59 262 3.0 13.0 0.00 0.00 0.00 100
20260507221411 61 309 3.0 6.0 0.00 0.00 0.00 100
20260507220413 60 298 2.0 7.0 0.00 0.00 0.00 100
20260507215411 60 264 4.0 11.0 0.00 0.00 0.00 100
20260507214411 62 295 6.0 9.0 0.00 0.00 0.00 100
20260507213413 62 277 4.0 12.0 0.00 0.00 0.00 100
20260507212411 62 264 5.0 9.0 0.00 0.00 0.00 100
20260507211413 63 241 5.0 9.0 0.00 0.00 0.00 100
20260507210411 63 288 7.0 13.0 0.00 0.00 0.00 100
20260507205413 64 265 1.0 12.0 0.00 0.00 0.00 100
20260507204412 63 312 4.0 10.0 0.00 0.00 0.00 100
20260507203412 63 250 6.0 13.0 0.00 0.00 0.00 100
20260507202413 63 18 7.0 13.0 0.00 0.00 0.00 100
20260507201412 65 253 4.0 9.0 0.00 0.00 0.00 100
20260507200414 63 295 5.0 10.0 0.00 0.00 0.00 100
20260507195413 65 310 2.0 8.0 0.00 0.00 0.00 100
20260507194412 64 251 5.0 10.0 0.00 0.00 0.00 100
20260507193412 65 257 5.0 7.0 0.00 0.00 0.00 100
20260507192415 65 267 4.0 10.0 0.00 0.00 0.00 100
20260507191411 66 289 3.0 11.0 0.00 0.00 0.00 100
20260507190412 65 302 3.0 9.0 0.00 0.00 0.00 100
20260507185412 65 302 5.0 12.0 0.00 0.00 0.00 100
20260507184412 64 196 1.0 11.0 0.00 0.00 0.00 100
20260507183412 65 281 5.0 9.0 0.00 0.00 0.00 100
20260507182413 66 264 2.0 14.0 0.00 0.00 0.00 100
20260507181412 65 277 10.0 10.0 0.00 0.00 0.00 100
20260507180413 64 255 2.0 10.0 0.00 0.00 0.00 100
20260507175412 64 285 6.0 10.0 0.00 0.00 0.00 100
20260507174413 64 292 8.0 12.0 0.00 0.00 0.00 100
20260507173412 64 275 10.0 16.0 0.00 0.00 0.00 100
20260507172413 62 320 2.0 12.0 0.00 0.00 0.00 100
20260507171412 63 267 5.0 9.0 0.00 0.00 0.00 100
20260507170412 64 261 6.0 12.0 0.00 0.00 0.00 100
20260507165413 63 306 8.0 9.0 0.00 0.00 0.00 100
20260507164412 62 298 1.0 8.0 0.00 0.00 0.00 100
20260507163413 63 243 1.0 9.0 0.00 0.00 0.00 100
20260507162412 60 279 4.0 10.0 0.00 0.00 0.00 100
20260507161413 62 246 10.0 14.0 0.00 0.00 0.00 100
20260507160412 62 279 7.0 7.0 0.00 0.00 0.00 100
20260507155414 59 300 5.0 10.0 0.00 0.00 0.00 100
20260507154413 62 322 3.0 8.0 0.00 0.00 0.00 100
20260507153414 60 316 4.0 9.0 0.00 0.00 0.00 100
20260507152413 59 295 5.0 13.0 0.00 0.00 0.00 100
20260507151413 60 272 2.0 5.0 0.00 0.00 0.00 100
20260507150414 62 267 3.0 5.0 0.00 0.00 0.00 100
20260507145413 62 288 3.0 9.0 0.00 0.00 0.00 100
20260507144413 61 264 6.0 10.0 0.00 0.00 0.00 100
20260507143413 61 286 4.0 7.0 0.00 0.00 0.00 100
20260507142413 61 288 5.0 7.0 0.00 0.00 0.00 100
20260507141413 60 299 2.0 8.0 0.00 0.00 0.00 100
20260507140413 61 281 0.0 6.0 0.00 0.00 0.00 100
20260507135413 58 258 3.0 9.0 0.00 0.00 0.00 100
20260507134413 59 286 3.0 4.0 0.00 0.00 0.00 100
20260507133413 58 277 3.0 5.0 0.00 0.00 0.00 100
20260507132413 57 265 2.0 7.0 0.00 0.00 0.00 100
20260507131416 58 277 2.0 4.0 0.00 0.00 0.00 100
20260507130413 56 284 3.0 4.0 0.00 0.00 0.00 100
20260507125413 55 291 1.0 7.0 0.00 0.00 0.00 100
20260507124414 54 312 2.0 8.0 0.00 0.00 0.00 100
20260507123414 53 285 4.0 7.0 0.00 0.00 0.00 100
20260507122414 53 319 1.0 7.0 0.00 0.00 0.00 100
20260507121413 53 316 2.0 10.0 0.00 0.00 0.00 100
20260507120413 52 323 0.0 5.0 0.00 0.00 0.00 100
20260507115413 52 295 1.0 5.0 0.00 0.00 0.00 100
20260507114413 49 239 0.0 2.0 0.00 0.00 0.00 100
20260507113412 48 244 0.0 1.0 0.00 0.00 0.00 100
20260507112413 48 330 0.0 3.0 0.00 0.00 0.00 100
20260507111412 47 90 1.0 4.0 0.00 0.00 0.00 100
20260507110413 47 230 0.0 3.0 0.00 0.00 0.00 100
20260507105412 47 240 0.0 4.0 0.00 0.00 0.00 100
20260507104413 46 274 2.0 4.0 0.00 0.00 0.00 100
20260507103412 47 19 3.0 3.0 0.00 0.00 0.00 100
20260507102414 47 46 2.0 4.0 0.00 0.00 0.00 100
20260507101412 47 289 0.0 2.0 0.00 0.00 0.00 100
20260507100414 46 19 1.0 2.0 0.00 0.00 0.00 100
20260507095414 47 182 0.0 3.0 0.00 0.00 0.00 100
20260507094414 47 302 2.0 4.0 0.00 0.00 0.00 100
20260507093413 46 285 0.0 2.0 0.00 0.00 0.00 100
20260507092414 47 302 2.0 5.0 0.00 0.00 0.00 100
20260507091414 47 279 2.0 6.0 0.00 0.00 0.00 100
20260507090414 47 312 1.0 5.0 0.00 0.00 0.00 100
20260507085414 47 284 1.0 4.0 0.00 0.00 0.00 100
20260507084414 48 306 3.0 4.0 0.00 0.00 0.00 100
20260507083414 47 281 3.0 3.0 0.00 0.00 0.00 100
20260507082414 47 265 2.0 5.0 0.00 0.00 0.00 100
20260507081414 48 292 3.0 8.0 0.00 0.00 0.00 100
20260507080414 48 278 2.0 7.0 0.00 0.00 0.00 100
20260507075414 49 279 3.0 9.0 0.00 0.00 0.00 100
20260507074414 49 236 4.0 8.0 0.00 0.00 0.00 100
20260507073414 49 265 4.0 8.0 0.00 0.00 0.00 100
20260507072414 48 281 1.0 6.0 0.00 0.00 0.00 100
20260507071414 49 313 3.0 7.0 0.00 0.00 0.00 100
20260507070414 49 310 4.0 8.0 0.00 0.00 0.00 100
20260507065414 49 295 6.0 9.0 0.00 0.00 0.00 100
20260507064414 49 289 4.0 8.0 0.00 0.00 0.00 100
20260507063414 50 319 4.0 5.0 0.00 0.00 0.00 100
20260507062414 50 278 2.0 6.0 0.00 0.00 0.00 100
20260507061414 50 285 3.0 6.0 0.00 0.00 0.00 100
20260507060414 51 279 2.0 5.0 0.00 0.00 0.00 100
20260507055414 51 323 2.0 4.0 0.00 0.00 0.00 100
20260507054414 51 265 3.0 5.0 0.00 0.00 0.00 100
20260507053414 51 303 2.0 7.0 0.00 0.00 0.00 100
20260507052414 51 270 4.0 6.0 0.00 0.00 0.00 100
20260507051414 51 275 4.0 6.0 0.00 0.00 0.00 100
20260507050415 52 307 1.0 5.0 0.00 0.00 0.00 100
20260507045414 52 279 5.0 5.0 0.00 0.00 0.00 100
20260507044415 52 268 3.0 9.0 0.00 0.00 0.00 100
20260507043415 54 307 0.0 7.0 0.00 0.00 0.00 100
20260507042414 54 244 6.0 6.0 0.00 0.00 0.00 100
20260507041414 55 295 4.0 6.0 0.00 0.00 0.00 100
20260507040415 55 282 4.0 9.0 0.00 0.00 0.00 100
20260507035414 55 296 2.0 9.0 0.00 0.00 0.00 100
20260507034414 56 270 3.0 8.0 0.00 0.00 0.00 100
20260507033415 55 288 2.0 11.0 0.00 0.00 0.00 100
20260507032414 58 275 4.0 16.0 0.00 0.00 0.00 100
20260507031415 58 295 4.0 9.0 0.00 0.00 0.00 100
20260507030414 58 271 7.0 8.0 0.00 0.00 0.00 100
20260507025414 58 261 4.0 10.0 0.00 0.00 0.00 100
20260507024414 58 244 4.0 10.0 0.00 0.00 0.00 100
20260507023415 59 250 4.0 9.0 0.00 0.00 0.00 100
20260507022415 58 264 3.0 11.0 0.00 0.00 0.00 100
20260507021414 58 261 8.0 8.0 0.00 0.00 0.00 100
20260507020414 58 248 3.0 7.0 0.00 0.00 0.00 100
20260507015414 59 239 2.0 6.0 0.00 0.00 0.00 100
20260507014414 58 262 6.0 12.0 0.00 0.00 0.00 100
20260507013414 59 237 4.0 9.0 0.00 0.00 0.00 100
20260507012414 58 223 3.0 9.0 0.00 0.00 0.00 100
20260507011415 58 230 3.0 9.0 0.00 0.00 0.00 100
20260507010414 59 257 3.0 12.0 0.00 0.00 0.00 100